Weather in Kurortnoe

Russia / Republic of Crimea     44˚54′47″N   35˚11′31″E
temp.,
°C
wind,
m/s
gust,
m/s
humid.,
%
clouds,
%
prec.,
mm/h
press.,
hPa
HPBL,
m
17 january, sun
sun1700:00−1˚ne61080100 0.0 1011580
03:00−1˚ne71279100 0.2 1008671
06:00−1˚nne81389100 0.4 1005728
09:00−1˚nne91398100 4.3 1005858
12:00−1˚n121697100 4.8 10051001
15:00−3˚nnw111596100 9.7 1005961
18:00−3˚n111595100 3.0 1008830
21:00−5˚nw81393100 4.2 1009613
18 january, mon
mon1800:00−8˚nw7119187 0.4 1012391
03:00−9˚nw689179 0.5 1014230
06:00−10˚nw5892100 0.0 1015196
09:00−9˚nw61189100 0.0 1016307
12:00−7˚nw51077100 0.0 1018394
15:00−6˚nnw3475100 0.0 1017286
18:00−9˚s017642 0.0 101882
21:00−6˚s238260 0.0 1018138
19 january, tue
tue1900:00−7˚wnw5982100 0.0 1019327
03:00−10˚nw348583 0.0 101996
06:00−10˚nw338188 0.0 101974
09:00−10˚nw448488 0.0 1020106
12:00−8˚nw478717 0.0 1021311
15:00−6˚nw598511 0.0 1020569
18:00−10˚nw46918 0.0 1021142
21:00−10˚nw588819 0.0 1023184
20 january, wed
wed2000:00−10˚nw588960 0.0 1023184
03:00−11˚nw358853 0.0 1024133
06:00−10˚nw348531 0.0 102495
09:00−9˚nw228116 0.0 102555
12:00−4˚s12777 0.0 1026200
15:00−2˚se239047 0.1 1025304
18:00−2˚sse349698 0.5 1026178
21:00sse348999 0.8 1026231
21 january, thu
thu2100:00−1˚ssw3391100 0.1 1026150
03:00−1˚ssw238993 0.1 1026142
06:00−1˚ssw238863 0.0 1025100
09:00+2˚s359276 0.0 1026186
12:00+3˚ssw459899 0.4 1026193
15:00+4˚ssw4696100 1.4 1025262
18:00+4˚ssw5895100 0.2 1026258
21:00+4˚ssw699077 0.2 1026278